Location: Dumpton Point
(51.3500°N, 1.4433°E)
Time: 21:04:00
(UTC+00:00)

Vanguard 2 Rocket - Pass Details

Date: 03 October 2022
Orbit: 555 x 3321 km, 32.9° (Epoch: 05 December)

Event Time Altitude Azimuth Distance (km) Brightness Sun altitude
Rises 22:41:53 0° 230° (SW) 6,668 11.2 -41.2°
Enters shadow 22:45:01 - 225° (SW) 5,910 10.8 -41.4°
Reaches altitude 10° 22:47:55 10° 220° (SW) 5,210 - -41.5°
Maximum altitude 22:58:03 24° 174° (S) 3,242 - -42.0°
Drops below altitude 10° 23:05:01 10° 125° (SE) 3,466 - -42.2°
Sets 23:08:03 0° 111° (ESE) 4,082 - -42.3°
